SKW5616 KDEN-KASE

Flight info

Callsign SKW5616
Flight time 0h 26m
Altitude 24000
Route CONNR7 WERNR DBL
Aircraft E75L/M-SDE3GILORVW/S

Departure

Time 2026-04-11 09:45
Airport Denver International Airport (KDEN)

Arrival

Time 2026-04-11 10:12
Airport Aspen-Pitkin County Airport (Sardy Field) (KASE)
Time Latitude Longitude Altitude Speed Heading
2026-04-11 09:37 39.85730 -104.66889 5364 ft 0 kts 90°
2026-04-11 09:38 39.85730 -104.66887 5364 ft 0 kts 90°
2026-04-11 09:39 39.85730 -104.66881 5364 ft 1 kts 91°
2026-04-11 09:39 39.85730 -104.66873 5364 ft 2 kts 91°
2026-04-11 09:39 39.85729 -104.66855 5364 ft 3 kts 101°
2026-04-11 09:39 39.85723 -104.66835 5364 ft 3 kts 129°
2026-04-11 09:40 39.85689 -104.66809 5364 ft 8 kts 152°
2026-04-11 09:40 39.85659 -104.66745 5363 ft 9 kts 91°
2026-04-11 09:40 39.85659 -104.66668 5364 ft 8 kts 90°
2026-04-11 09:40 39.85659 -104.66594 5364 ft 8 kts 87°
2026-04-11 09:41 39.85674 -104.66527 5364 ft 8 kts 73°
2026-04-11 09:41 39.85679 -104.66459 5364 ft 8 kts 89°
2026-04-11 09:41 39.85680 -104.66390 5364 ft 7 kts 78°
2026-04-11 09:41 39.85715 -104.66349 5363 ft 8 kts 10°
2026-04-11 09:42 39.85775 -104.66347 5364 ft 10 kts
2026-04-11 09:42 39.85851 -104.66347 5364 ft 12 kts
2026-04-11 09:42 39.85936 -104.66346 5364 ft 12 kts
2026-04-11 09:43 39.86098 -104.66321 5362 ft 10 kts 50°
2026-04-11 09:43 39.86106 -104.66242 5364 ft 8 kts 90°
2026-04-11 09:43 39.86106 -104.66172 5364 ft 8 kts 89°
2026-04-11 09:43 39.86106 -104.66098 5364 ft 9 kts 89°
2026-04-11 09:44 39.86106 -104.66027 5362 ft 5 kts 93°
2026-04-11 09:44 39.86103 -104.66016 5362 ft 0 kts 130°
2026-04-11 09:44 39.86094 -104.66012 5363 ft 4 kts 168°
2026-04-11 09:44 39.86037 -104.66012 5364 ft 21 kts 181°
2026-04-11 09:45 39.85665 -104.66019 5364 ft 85 kts 180°
2026-04-11 09:45 39.84869 -104.66032 5362 ft 142 kts 180°
2026-04-11 09:45 39.83734 -104.66034 5558 ft 177 kts 181°
2026-04-11 09:45 39.82457 -104.66054 6289 ft 190 kts 182°
2026-04-11 09:46 39.81139 -104.66301 7081 ft 192 kts 204°
2026-04-11 09:46 39.80073 -104.67342 7862 ft 199 kts 232°
2026-04-11 09:46 39.79470 -104.69037 8483 ft 220 kts 256°
2026-04-11 09:46 39.79348 -104.71078 9273 ft 228 kts 267°
2026-04-11 09:47 39.79390 -104.73097 10428 ft 222 kts 270°
2026-04-11 09:47 39.79576 -104.75220 10806 ft 260 kts 281°
2026-04-11 09:47 39.80239 -104.77600 10125 ft 294 kts 295°
2026-04-11 09:47 39.81173 -104.79916 9998 ft 282 kts 293°
2026-04-11 09:48 39.81933 -104.82162 9941 ft 268 kts 289°
2026-04-11 09:48 39.82609 -104.84488 10016 ft 277 kts 287°
2026-04-11 09:48 39.83257 -104.86862 10050 ft 285 kts 287°
2026-04-11 09:48 39.83901 -104.89310 10375 ft 285 kts 281°
2026-04-11 09:49 39.83979 -104.91871 11219 ft 286 kts 257°
2026-04-11 09:49 39.83523 -104.94419 12043 ft 293 kts 256°
2026-04-11 09:49 39.83018 -104.97024 12904 ft 299 kts 256°
2026-04-11 09:49 39.82487 -104.99659 13813 ft 304 kts 255°
2026-04-11 09:50 39.81927 -105.02324 14760 ft 306 kts 255°
2026-04-11 09:50 39.81381 -105.05011 15740 ft 307 kts 255°
2026-04-11 09:50 39.80842 -105.07703 16677 ft 308 kts 255°
2026-04-11 09:50 39.80301 -105.10412 17543 ft 310 kts 255°
2026-04-11 09:51 39.79754 -105.13132 18378 ft 312 kts 255°
2026-04-11 09:51 39.79204 -105.15866 19102 ft 314 kts 255°
2026-04-11 09:51 39.78648 -105.18623 19853 ft 315 kts 254°
2026-04-11 09:51 39.78090 -105.21384 20584 ft 318 kts 253°
2026-04-11 09:52 39.77526 -105.24169 21321 ft 319 kts 253°
2026-04-11 09:52 39.76958 -105.26972 21999 ft 322 kts 253°
2026-04-11 09:52 39.76387 -105.29785 22682 ft 323 kts 252°
2026-04-11 09:52 39.75813 -105.32608 23386 ft 324 kts 252°
2026-04-11 09:53 39.75233 -105.35447 23916 ft 325 kts 251°
2026-04-11 09:53 39.74656 -105.38271 24035 ft 324 kts 251°
2026-04-11 09:53 39.74074 -105.41107 24009 ft 330 kts 251°
2026-04-11 09:53 39.73465 -105.44058 24037 ft 345 kts 251°
2026-04-11 09:54 39.72842 -105.47094 23998 ft 351 kts 251°
2026-04-11 09:54 39.72209 -105.50178 23858 ft 352 kts 252°
2026-04-11 09:54 39.71582 -105.53244 23883 ft 351 kts 252°
2026-04-11 09:54 39.70951 -105.56313 23878 ft 352 kts 251°
2026-04-11 09:55 39.70319 -105.59388 23875 ft 353 kts 252°
2026-04-11 09:55 39.69693 -105.62469 23871 ft 353 kts 252°
2026-04-11 09:55 39.69066 -105.65551 23909 ft 352 kts 251°
2026-04-11 09:55 39.68471 -105.68642 23906 ft 354 kts 255°
2026-04-11 09:56 39.68046 -105.71846 23945 ft 365 kts 257°
2026-04-11 09:56 39.67649 -105.75113 23933 ft 368 kts 257°
2026-04-11 09:56 39.67234 -105.78393 23906 ft 368 kts 256°
2026-04-11 09:56 39.66799 -105.81661 23925 ft 368 kts 256°
2026-04-11 09:57 39.66361 -105.84893 23903 ft 368 kts 256°
2026-04-11 09:57 39.65915 -105.88158 23902 ft 368 kts 256°
2026-04-11 09:57 39.65465 -105.91427 23936 ft 368 kts 256°
2026-04-11 09:57 39.65014 -105.94701 23924 ft 368 kts 256°
2026-04-11 09:58 39.64564 -105.97962 23926 ft 364 kts 256°
2026-04-11 09:58 39.64134 -106.01111 23872 ft 345 kts 255°
2026-04-11 09:58 39.63723 -106.04101 23789 ft 328 kts 255°
2026-04-11 09:58 39.63330 -106.06939 23868 ft 311 kts 255°
2026-04-11 09:59 39.62944 -106.09683 23989 ft 314 kts 255°
2026-04-11 09:59 39.62545 -106.12495 23967 ft 318 kts 255°
2026-04-11 09:59 39.62148 -106.15319 23919 ft 318 kts 255°
2026-04-11 09:59 39.61754 -106.18146 23965 ft 321 kts 255°
2026-04-11 10:00 39.61354 -106.20994 23960 ft 321 kts 255°
2026-04-11 10:00 39.60951 -106.23852 23732 ft 326 kts 255°
2026-04-11 10:00 39.60546 -106.26730 23509 ft 321 kts 255°
2026-04-11 10:00 39.60150 -106.29552 23280 ft 317 kts 255°
2026-04-11 10:01 39.59749 -106.32379 22820 ft 319 kts 255°
2026-04-11 10:01 39.59350 -106.35204 22387 ft 318 kts 255°
2026-04-11 10:01 39.58953 -106.38006 21958 ft 315 kts 255°
2026-04-11 10:01 39.58560 -106.40785 21571 ft 311 kts 256°
2026-04-11 10:02 39.58168 -106.43535 21141 ft 310 kts 256°
2026-04-11 10:02 39.57778 -106.46266 20732 ft 305 kts 256°
2026-04-11 10:02 39.57396 -106.48947 20349 ft 301 kts 256°
2026-04-11 10:02 39.57017 -106.51607 19952 ft 299 kts 256°
2026-04-11 10:03 39.56637 -106.54249 19581 ft 298 kts 256°
2026-04-11 10:03 39.56258 -106.56890 19185 ft 298 kts 256°
2026-04-11 10:03 39.55880 -106.59529 18778 ft 298 kts 256°
2026-04-11 10:03 39.55501 -106.62161 18378 ft 296 kts 257°
2026-04-11 10:04 39.55126 -106.64760 17998 ft 290 kts 257°
2026-04-11 10:04 39.54562 -106.67179 17562 ft 287 kts 244°
2026-04-11 10:04 39.53576 -106.69401 17228 ft 283 kts 238°
2026-04-11 10:04 39.52587 -106.71512 16845 ft 286 kts 238°
2026-04-11 10:05 39.51548 -106.73705 16475 ft 284 kts 238°
2026-04-11 10:05 39.50505 -106.75878 16105 ft 285 kts 237°
2026-04-11 10:05 39.49456 -106.78048 15670 ft 283 kts 237°
2026-04-11 10:05 39.48416 -106.80204 15364 ft 281 kts 237°
2026-04-11 10:06 39.47374 -106.82360 14934 ft 283 kts 237°
2026-04-11 10:06 39.46336 -106.84510 14598 ft 281 kts 238°
2026-04-11 10:06 39.45310 -106.86655 14209 ft 281 kts 240°
2026-04-11 10:06 39.44605 -106.88998 14010 ft 280 kts 255°
2026-04-11 10:07 39.44437 -106.91498 13543 ft 279 kts 272°
2026-04-11 10:07 39.44732 -106.93912 13215 ft 262 kts 274°
2026-04-11 10:07 39.44489 -106.96105 13148 ft 241 kts 240°
2026-04-11 10:07 39.43321 -106.97579 12947 ft 240 kts 204°
2026-04-11 10:08 39.41669 -106.97789 12656 ft 247 kts 168°
2026-04-11 10:08 39.40115 -106.96792 12431 ft 253 kts 151°
2026-04-11 10:08 39.38617 -106.95642 12085 ft 245 kts 162°
2026-04-11 10:08 39.37065 -106.95060 11768 ft 225 kts 160°
2026-04-11 10:09 39.35713 -106.94026 11269 ft 226 kts 150°
2026-04-11 10:09 39.34396 -106.92973 10897 ft 215 kts 154°
2026-04-11 10:09 39.33100 -106.92140 10464 ft 202 kts 159°
2026-04-11 10:09 39.31823 -106.91459 10004 ft 195 kts 161°
2026-04-11 10:10 39.30611 -106.90853 9555 ft 186 kts 161°
2026-04-11 10:10 39.29438 -106.90282 9262 ft 175 kts 161°
2026-04-11 10:10 39.28311 -106.89744 8881 ft 170 kts 160°
2026-04-11 10:10 39.27221 -106.89227 8435 ft 162 kts 160°
2026-04-11 10:11 39.26209 -106.88730 8039 ft 153 kts 160°
2026-04-11 10:11 39.25203 -106.88243 7833 ft 154 kts 161°
2026-04-11 10:11 39.24214 -106.87785 7737 ft 155 kts 162°
2026-04-11 10:11 39.23189 -106.87300 7727 ft 153 kts 159°
2026-04-11 10:12 39.22298 -106.86875 7751 ft 118 kts 160°
2026-04-11 10:12 39.21756 -106.86616 7800 ft 42 kts 160°
2026-04-11 10:12 39.21682 -106.86541 7806 ft 7 kts 70°
2026-04-11 10:12 39.21700 -106.86492 7805 ft 3 kts 55°
2026-04-11 10:13 39.21729 -106.86481 7802 ft 6 kts 344°
2026-04-11 10:13 39.21791 -106.86511 7797 ft 10 kts 342°
2026-04-11 10:13 39.21869 -106.86550 7787 ft 14 kts 337°
2026-04-11 10:13 39.21912 -106.86570 7779 ft 3 kts 343°
2026-04-11 10:14 39.21925 -106.86573 7781 ft 2 kts 358°
2026-04-11 10:14 39.21933 -106.86571 7780 ft 3 kts 27°
2026-04-11 10:14 39.21943 -106.86543 7784 ft 4 kts 81°
2026-04-11 10:14 39.21946 -106.86518 7786 ft 2 kts 78°
2026-04-11 10:15 39.21947 -106.86511 7786 ft 1 kts 79°
2026-04-11 10:15 39.21948 -106.86509 7786 ft 0 kts 79°